Location: Daybis Observatory
(33.4273°N, 88.8061°W)
Time: 21:16:22
(UTC-05:00)

Daily predictions for brighter satellites

Satellite Brightness Start Highest point End
(mag) Time Altitude Azimuth Time Altitude Azimuth Time Altitude Azimuth
Sich 1 Rocket 4.3 19:56:08 10° SSW 20:00:26 58° W 20:04:46 10° N
Cosmos 44 4.4 19:57:18 10° N 20:00:58 24° NE 20:04:44 10° ESE
DELTA 2 R/B (1) 4.1 19:56:20 10° WNW 20:01:50 55° NNE 20:07:20 10° E
Okean 3 4.0 19:58:41 10° NNW 20:02:56 66° W 20:07:10 10° S
EXPRESS MD2 3.4 20:01:26 10° WSW 20:03:33 44° NW 20:06:30 10° NE
Spot 2 Rocket 4.3 19:59:26 10° SE 20:03:57 33° ENE 20:08:29 10° N
Atlas Centaur 2 3.1 19:59:25 10° WSW 20:07:51 71° S 20:15:06 10° E
Cosmos 2026 Rocket 4.0 20:01:57 10° S 20:08:11 70° E 20:14:32 10° NNE
H-2A R/B 2.8 20:06:33 10° S 20:10:22 85° WSW 20:14:11 10° NNW
ALOS 3.7 20:09:55 10° S 20:14:18 41° W 20:18:43 10° NNW
CZ-4C R/B 3.4 20:08:44 10° NW 20:16:09 68° WSW 20:24:10 10° SSE
Cosmos 1655 Rocket 4.0 20:12:21 10° S 20:18:30 63° E 20:24:43 10° NNE
Skynet4D Del rocket 4.5 20:11:54 10° WSW 20:18:48 48° S 20:24:15 13° ESE
Cosmos 1812 3.4 20:19:51 10° NNW 20:23:39 56° W 20:27:26 10° S
Cosmos 2297 Rocket 4.3 20:24:45 10° NW 20:29:25 27° WSW 20:34:04 10° SSW
BREEZE M DEB (TANK) 4.2 20:15:07 10° SSW 20:30:24 47° SE 20:34:36 10° ENE
USA 186 1.9 20:28:11 10° SSE 20:31:26 57° ENE 20:34:46 10° N
Cosmos 1602 3.6 20:27:59 10° S 20:31:47 65° E 20:35:35 10° NNE
Okean 2 Rocket 3.6 20:27:26 10° SSW 20:31:52 63° W 20:36:21 10° N
Meteor 1-11 Rocket 4.0 20:26:35 10° SSE 20:32:13 49° E 20:37:46 10° NNE
Envisat 3.2 20:28:04 10° SSE 20:32:56 50° ENE 20:37:50 10° N
GPS 2-05 Rocket1 3.2 20:29:50 10° W 20:33:12 56° N 20:35:41 16° ENE
NOSS 2-3 (D) 3.8 20:34:12 10° SSW 20:38:39 58° ESE 20:43:35 10° NE
OAO 1 Rocket 4.5 20:33:31 10° WSW 20:38:48 66° SSE 20:43:16 15° E
USA 267 3.6 20:33:15 10° SSE 20:39:43 64° SW 20:46:14 10° NW
Resurs 1-3 3.8 20:44:49 10° S 20:49:11 74° WSW 20:53:35 10° NNW
Cosmos 2322 Rocket 2.1 20:44:19 10° SSW 20:50:00 85° ESE 20:55:44 10° NNE
Cosmos 2263 Rocket 3.1 20:48:47 10° N 20:53:46 30° ENE 20:55:53 24° E
Delta 2 Rocket 3.5 20:51:37 10° WSW 20:55:37 57° SSE 20:57:46 28° E
Cosmos 1939 Rocket 2.8 20:56:09 27° SSE 20:58:10 63° ENE 21:02:05 10° N
Cosmos 44 Rocket 3.3 20:54:42 10° NNW 20:59:29 77° WSW 21:02:28 23° SSE
SL-16 R/B 2.3 20:55:05 10° SSW 21:00:44 77° WNW 21:06:25 10° NNE
Cosmos 1536 2.7 21:01:09 15° S 21:04:24 73° E 21:08:28 10° N
ATLAS 2AS CENTAUR R/B 2.9 20:57:04 10° SSW 21:04:30 72° ESE 21:12:31 10° NE
Meteor 1-19 Rocket 4.3 21:02:17 10° N 21:08:10 88° W 21:12:56 16° S
YAOGAN 6 2.5 21:08:45 54° ESE 21:09:07 58° ENE 21:12:36 10° N
Cosmos 2322 4.2 21:08:48 32° SE 21:10:04 36° ESE 21:15:12 10° NE
Lacrosse 5 rocket 1.1 21:06:51 10° NW 21:10:35 76° SW 21:11:31 48° SSE
Cosmos 1850 Rocket 4.0 21:08:40 10° N 21:13:57 61° ENE 21:15:44 39° SE
Cosmos 1331 Rocket 4.3 21:14:52 40° ESE 21:15:31 42° ESE 21:20:25 10° NNE
NOSS 2-3 (E) 4.4 21:11:13 10° SW 21:15:42 57° WNW 21:20:48 10° NNE
Okean 1 Rocket 2.9 21:15:27 40° SSE 21:16:54 68° E 21:21:14 10° NNE
Resurs 01 Rocket 3.5 21:16:35 10° SSW 21:20:24 28° W 21:24:15 10° NW
Helios 1B rocket 2.3 21:17:26 10° NNE 21:21:33 89° ESE 21:23:21 33° SSW
Cosmos 1300 Rocket 3.8 21:17:29 10° SSW 21:21:45 65° W 21:26:02 10° N
S3M 4.3 21:15:47 10° NNW 21:22:00 66° W 21:28:13 10° S
Cosmos 2360 Rocket 2.1 21:18:29 10° S 21:24:01 63° ESE 21:29:36 10° NNE
Cosmos 2266 Rocket 3.9 21:19:43 10° S 21:25:46 82° W 21:31:49 10° N
Tiangong 1 3.4 21:24:54 10° NNW 21:26:21 16° N 21:26:21 16° N
Okean 1-7 Rocket 4.4 21:23:05 10° N 21:26:35 35° ENE 21:26:35 35° ENE
Meteor 1-5 Rocket 4.0 21:24:35 13° S 21:29:20 85° W 21:34:40 10° N
Cosmos 2315 Rocket 4.1 21:24:29 10° N 21:30:35 53° E 21:31:52 46° ESE
Nadezhda 2 Rocket 4.4 21:31:03 39° SSE 21:33:17 65° E 21:39:24 10° NNE
Cosmos 1025 Rocket 3.7 21:29:45 10° N 21:32:55 39° NE 21:32:55 39° NE
SPOT 5 4.1 21:35:22 27° NE 21:35:22 27° NE 21:38:35 10° NNE
Lacrosse 5 2.6 21:35:42 10° SW 21:40:39 53° NW 21:45:38 10° NNE
NOAA 11 4.1 21:41:12 61° SE 21:42:09 77° ENE 21:47:39 10° N
Meteor 2-4 Rocket 4.1 21:37:38 10° NNW 21:43:07 60° W 21:45:55 30° SSW
DELTA 2 R/B (1) 3.6 21:42:51 10° WNW 21:48:23 61° SSW 21:48:44 60° S
Meteosat 1 Rocket2 4.3 21:51:05 10° WSW 21:56:54 57° S 21:57:15 56° SSE
Atlas Centaur 2 2.7 21:49:38 10° W 21:57:25 61° SSW 21:58:01 58° S
Helios 1A 4.2 21:58:19 35° WSW 21:58:43 36° W 22:02:39 10° NNW
Cosmos 1932 4.3 21:58:10 10° NNW 22:04:39 77° ENE 22:04:55 76° E
USA 238 DEB 4.3 21:59:19 10° NNW 22:06:02 42° NE 22:06:30 42° ENE
USA 238 4.3 21:59:26 10° NNW 22:06:08 42° NE 22:06:37 41° ENE
ERS-1 Rocket 3.2 22:06:24 67° W 22:06:24 67° W 22:11:15 10° NNW
MetOp-A 4.1 22:06:29 79° W 22:06:29 79° W 22:11:45 10° NNW
H-2A R/B 2.9 22:10:30 40° NNE 22:10:30 40° NNE 22:13:55 10° N
ATLAS 3B R/B 2.7 22:19:19 10° NNW 22:25:20 62° NNE 22:25:20 62° NNE
Terra 3.9 22:29:05 19° NNE 22:29:05 19° NNE 22:30:37 10° N
ARGOS 3.7 22:27:17 56° WNW 22:27:17 56° WNW 22:31:48 10° NNW
Cosmos 2278 Rocket 4.3 22:33:20 10° NNE 22:35:15 15° NE 22:35:15 15° NE
Cosmos 2263 Rocket 3.6 22:32:40 10° NW 22:37:35 31° WSW 22:37:36 31° WSW
Cosmos 1844 Rocket 3.9 22:40:17 10° NNW 22:43:39 35° N 22:43:39 35° N
Cosmos 2219 Rocket 4.1 22:57:51 22° NNE 22:57:51 22° NNE 22:59:44 10° NNE
COSMOS 2428 4.1 23:04:15 35° NNW 23:04:15 35° NNW 23:08:16 10° N
Cosmos 2333 Rocket 4.3 23:20:18 20° NNE 23:20:18 20° NNE 23:21:58 10° NNE
